NOAA 16 DEB, 42372

Orbit data source: Space-Track

NOAA 16 DEB, 42372 is space debris in SSO originally from a launch on Thu, 21 Sep 2000 UTC launched from the Air Force Western Test Range (AFWTR). Debris objects in space refer to the collection of defunct objects orbiting the Earth. Examples of debris include non-operational satellites, rocket bodies, and fragments generated from explosions, collisions, or faulty payload assembly.

Loading next visibility...
Identifier
42372, 2000-055RQ
Orbit
SSO
Country
Flag of USUS
Related business
Manufacturer
Unknown
Mission
Spacecraft
Bus & Motor
Unknown
Mass
Unknown
Launch date (UTC)
2000-09-21 (26 years ago)
Launch vehicle
Unknown
Launch site
Air Force Western Test Range (AFWTR)
Object type
Payload
Rocket body
Debris
Shape & HBR
Unknown shape, 0.1 m
Radar Cross Section
Medium (>0.1 m² and <1 m²)

Expand to show TLE details & history
Last TLE update: 3 days ago

TLE from 3 days ago
0 NOAA 16 DEB
1 42372U 00055RQ  26234.81081756  .00003584  00000-0  12743-2 0  9990
2 42372  98.8764   0.4939 0012244 138.8758 221.3351 14.34953769536934
Epoch: 2026-08-22T19:27Z
TLE epoch observation values (Epoch: 2026-08-22T19:27:34.637Z)
Latitude
-0.00002°
Longitude
97.48371°
Altitude
784.732 km
Speed
7.458 km/s
True Right ascension
00h 01m 58s
True Declination
0° 00' 00"
Sunlit
Object was in full shadow at epoch
Visualization orbit readout
Latitude
Unknown
Longitude
Unknown
Altitude
Unknown
Speed
Unknown
Apparent Right ascension
Unknown
Apparent Declination
Unknown
Sunlit
N/A
Visualization observer readout
Local Sidereal Time
11:31:01
Azimuth
Unknown
Elevation
Unknown
Doppler factor
Unknown
Orbital elements
Apogee altitude
781.122 km
Perigee altitude
763.612 km
Semi-major axis
7,150.504 km
Eccentricity
0.00122
Inclination
98.8764°
RAAN
0.4939°
Arg. of periapsis
138.8758°
True anomaly
221.24254°
Mean anomaly
221.3351°
Eccentric anomaly
221.28881°
Mean motion
3.58954 °/min
Orbital period
100.29 mins
BSTAR
0.0012743
Loading maneuver chart data...
Computing Atmospheric mass density...
Loading historical data...
Loading historical data...
Loading historical data...
Loading historical data...
Loading historical data...
Loading historical data...
Loading historical data...

Documentation

Showing up to 5 results
|